Flag for U.S.A. Weather past 2 weeks in Arlington, Texas, U.S.A.

Now
71 °F

Clear.


Feels Like: 71 °F
Forecast: 69 / 85 °F
Wind: No wind

Location: Arlington Municipal Airport

Current Time: Sep 15, 2014 at 5:10:42 AM

Latest Report: Sep 15, 2014 at 3:53 AM


Visibility: 10 mi

Pressure: 30.10 "Hg

Humidity: 81%

Dew point: 65 °F

Location of ArlingtonLocation

Historic Weather in Arlington — Graph

°F

Arlington temperature yesterday

Maximum temperature yesterday: 80 °F (at 5:53 PM)
Minimum temperature yesterday: 63 °F (at 7:53 AM)
Average temperature yesterday: 70 °F

Past Weeks' High & Low Weather Summary

 TemperatureHumidityPressure
High101 °F (Sep 10, 3:53 PM)90% (Sep 12, 11:53 AM)30.27 "Hg (Sep 12, 11:53 AM)
Low56 °F (Sep 13, 7:53 AM)29% (Sep 9, 4:53 PM)29.70 "Hg (Sep 10, 5:53 PM)
Average81 °F63%29.97 "Hg
* Reported Aug 31 2:53 AM — Sep 15 2:53 AM, Arlington, Weather by CustomWeather, © 2014

Note: Actual official high and low records may vary slightly from our data, if they occured in-between our weather recording intervals... More about our weather records

Advertising

Arlington weather history for previous 24 hours

 ConditionsComfort  
Time TempWeatherWind HumidityBarometerVisibility
2:53 AM
Sep 15
70 °FClear.No wind84%30.11 "Hg10 mi
1:53 AM71 °FClear.No wind81%30.10 "Hg10 mi
12:53 AM70 °FClear.3 mph84%30.11 "Hg10 mi
11:53 PM
Sep 14
70 °FClear.No wind84%30.12 "Hg10 mi
10:53 PM70 °FClear.No wind81%30.12 "Hg10 mi
9:53 PM70 °FClear.No wind81%30.12 "Hg10 mi
8:53 PM73 °FClear.No wind74%30.11 "Hg10 mi
7:53 PM74 °FSunny.No wind71%30.11 "Hg10 mi
6:53 PM78 °FSunny.No wind60%30.10 "Hg10 mi
5:53 PM80 °FSunny.No wind54%30.11 "Hg10 mi
4:53 PM78 °FSunny.3 mph58%30.11 "Hg10 mi
3:53 PM77 °FOvercast.3 mph58%30.13 "Hg10 mi
2:53 PM76 °FOvercast.No wind60%30.15 "Hg10 mi
1:53 PM75 °FOvercast.3 mph62%30.18 "Hg10 mi
12:53 PM73 °FOvercast.No wind64%30.20 "Hg10 mi
11:53 AM71 °FOvercast.5 mph68%30.21 "Hg10 mi
10:53 AM69 °FOvercast.6 mph73%30.22 "Hg10 mi
9:53 AM66 °FMostly cloudy.5 mph78%30.22 "Hg10 mi
8:53 AM64 °FOvercast.6 mph84%30.23 "Hg10 mi
7:53 AM63 °FFog.5 mph87%30.22 "Hg6 mi
6:53 AM65 °FOvercast.5 mph78%30.21 "Hg10 mi
5:53 AM65 °FOvercast.6 mph78%30.19 "Hg10 mi
Weather by CustomWeather, © 2014

See weather overviewHow to use our weather pages